Regional Weather Roundup
Issued by NWS Little Rock, AR

Home | Current Version | Previous Version | Graphics & Text | Print | Product List | Glossary On
Versions: 1 2 3 4 5 6 7 8 9 10 11 12 13 14 15 16 17 18 19 20 21 22 23 24 25 26 27 28 29 30 31 32 33 34 35 36 37 38 39 40 41 42 43 44 45 46 47
000
ASUS44 KLZK 250505
RWRLZK

WEATHER ROUNDUP FOR ARKANSAS
NATIONAL WEATHER SERVICE LITTLE ROCK AR
1100 PM CST SAT JAN 24 2015

NOTE: "FAIR" INDICATES FEW OR NO CLOUDS BELOW 12,000 FEET WITH NO
SIGNIFICANT WEATHER AND/OR OBSTRUCTIONS TO VISIBILITY.

ARZ001-003-010-029-250600-
NORTHWEST ARKANSAS

CITY           SKY/WX    TMP DP  RH WIND       PRES   REMARKS
FAYETTEVILLE   PTCLDY    40  32  73 S7        29.86F
FORT SMITH     CLEAR     39  32  76 CALM      29.90F
HARRISON       MOCLDY    51  32  48 SW8       29.83F
BENTONVILLE    MOCLDY    45  30  57 SW10      29.85F
ROGERS         MOCLDY    45  33  63 SW9       29.84F
SILOAM SPGS    PTCLDY    41  28  60 S7        29.86F
HIGHFILL       PTCLDY    46  32  58 SW12      29.84F
$$

ARZ004-005-016-250600-
NORTH CENTRAL ARKANSAS

CITY           SKY/WX    TMP DP  RH WIND       PRES   REMARKS
BATESVILLE     CLEAR     46  32  57 W8        29.87S
FLIPPIN        MOCLDY    46  28  49 SW3       29.83F
MTN HOME       MOCLDY    45  30  55 S6        29.83F
$$

ARZ040-041-250600-
WEST CENTRAL ARKANSAS

CITY           SKY/WX    TMP DP  RH WIND       PRES   REMARKS
MENA           CLEAR     46  34  61 SW6       29.93S
MOUNT IDA      CLEAR     35  30  82 CALM      29.89F
$$

ARZ009-017-025-026-028-250600-
NORTHEAST ARKANSAS

CITY           SKY/WX    TMP DP  RH WIND       PRES   REMARKS
JONESBORO      CLEAR     40  33  76 SW3       29.86F
NEWPORT        CLEAR     38  32  79 S12       29.88F
WALNUT RIDGE   PTCLDY    37  28  70 SW7       29.85F
BLYTHEVILLE    FAIR      40  34  79 SW10      29.88F
$$

ARZ022-023-033-042-044-250600-
CENTRAL ARKANSAS

CITY           SKY/WX    TMP DP  RH WIND       PRES   REMARKS
LITTLE ROCK    PTCLDY    44  32  62 W3        29.92F
N LITTLE ROCK  PTCLDY    46  35  67 SW7       29.92F
JACKSONVILLE   FAIR      34  29  79 CALM      29.91S
SEARCY         CLEAR     38  31  76 SW3       29.91F
HOT SPRINGS    CLEAR     38  32  79 CALM      29.93S
RUSSELLVILLE   CLEAR     34  30  85 CALM      29.89F
CLINTON        FAIR      32  28  86 CALM      29.90F
$$

ARZ036-250600-
EAST ARKANSAS

CITY           SKY/WX    TMP DP  RH WIND       PRES   REMARKS
WEST MEMPHIS   CLEAR     42  34  73 S8        29.90S HAZE
$$

ARZ050-053-066-070-073-250600-
SOUTHWEST ARKANSAS

CITY           SKY/WX    TMP DP  RH WIND       PRES   REMARKS
ARKADELPHIA    FAIR      35  34  96 CALM      29.96S
CAMDEN         CLEAR     36  32  87 CALM      29.98S
TEXARKANA      CLEAR     42  36  79 SW8       29.98S
EL DORADO      CLEAR     37  33  85 CALM      29.99F
DE QUEEN       CLEAR     33  31  92 CALM      29.95S
$$

ARZ056-057-069-250600-
SOUTHEAST ARKANSAS

CITY           SKY/WX    TMP DP  RH WIND       PRES   REMARKS
PINE BLUFF     CLEAR     42  32  67 SW7       29.94F
STUTTGART      CLEAR     43  34  70 W9        29.93F
MONTICELLO     CLEAR     46  33  60 W8        29.96S

$$




USA.gov is the U.S. government's official web portal to all federal, state and local government web resources and services.